GFSNIL_con_lsi_120.txt.gz
Lid_Strength_Index
1 2 2 2 2 2 2 1 1 1 1 1 1 1 1 1 1 1 1 2 2 2
2 2 2 1 1 1 1 1 1 1 1 1 1 1 1 2 2 1 2 2 2 2
2 1 1 1 2 1 1 1 1 1 1 1 1 1 1 2 2 2 2 2 2 2
2 1 2 1 1 1 1 1 1 3 2 3 3 2 2 2 2 2 2 2 2 3
2 3 2 2 1 1 1 1 2 2 3 3 3 3 3 3 3 3 3 3 3 3
3 3 2 2 1 1 1 1 3 3 3 3 3 4 3 4 3 3 3 3 3 3
3 3 3 1 1 1 1 2 3 3 3 3 3 3 3 3 3 3 3 3 2 2
3 2 2 2 1 1 1 2 2 3 3 3 4 4 3 3 4 4 4 4 3 3
7 2 2 2 2 2 1 2 3 3 3 4 4 9 9 6 4 4 5 6 8 9
10 8 5 2 2 2 2 1 2 2 3 4 4 10 10 9 5 5 5 7 9 11
10 11 9 7 2 2 2 2 2 2 2 3 3 10 10 11 6 6 7 8 8 10
12 12 11 10 8 6 2 2 3 2 2 3 3 10 10 9 6 9 13 13 12 12
13 13 13 12 11 9 7 2 3 8 9 10 7 11 11 8 11 14 15 16 15 15
13 14 13 13 11 11 9 11 13 14 14 13 13 12 11 11 11 14 16 16 16 16

GFSNIL_con_lsi_123.txt.gz
Lid_Strength_Index
3 2 2 2 2 2 2 1 1 1 1 1 1 1 1 1 1 1 1 2 2 2
2 2 3 2 2 2 2 1 1 1 1 1 1 1 1 1 1 1 1 2 2 2
3 3 2 2 3 2 2 2 2 2 1 1 1 1 1 1 1 1 1 1 2 2
2 2 3 3 3 2 2 2 3 2 3 2 2 1 1 1 1 1 1 2 2 2
2 3 3 3 2 2 2 2 3 3 3 3 2 2 2 2 2 2 2 2 2 2
3 3 3 3 2 2 3 3 2 2 3 3 3 3 3 3 3 2 2 2 2 2
3 3 3 2 2 3 3 3 3 3 3 3 3 3 3 3 3 2 3 3 2 2
6 5 3 3 2 2 3 3 2 3 3 3 3 3 4 3 3 3 4 4 3 3
8 7 6 3 2 2 2 3 3 3 3 4 4 8 8 6 4 4 5 6 7 5
10 9 8 7 3 2 2 2 3 3 3 3 4 9 9 9 5 5 6 8 9 11
11 10 9 9 8 6 3 2 3 3 3 3 4 10 10 10 6 6 7 8 9 10
12 11 11 11 11 9 7 3 3 3 4 3 4 10 11 9 7 12 14 13 12 12
12 12 13 13 11 11 9 7 6 10 11 11 8 12 11 8 11 14 15 15 15 14
13 13 13 13 13 12 11 11 13 14 15 14 13 12 11 10 11 14 15 15 16 16

GFSNIL_con_lsi_129.txt.gz
Lid_Strength_Index
3 3 3 3 2 2 3 3 2 1 1 1 1 1 2 1 1 1 2 2 2 2
3 3 3 3 3 3 3 3 2 1 1 1 2 2 2 2 1 1 1 2 2 2
4 4 4 3 4 4 3 3 2 2 2 2 2 2 2 1 1 1 1 1 1 2
3 3 4 3 4 4 4 3 2 2 2 2 3 1 1 1 1 1 1 1 1 2
3 4 4 4 3 3 3 3 2 2 3 2 2 2 2 2 2 2 2 2 2 2
6 3 3 4 4 4 3 3 3 3 3 2 2 3 2 2 2 2 2 1 2 2
7 6 3 3 3 3 3 4 4 4 3 3 3 3 3 3 3 2 2 2 2 1
9 7 7 5 3 3 3 3 4 4 4 4 4 4 4 3 3 3 3 3 3 3
10 9 9 8 7 3 3 3 4 4 4 5 5 9 9 5 3 4 4 4 3 3
11 11 11 10 9 8 6 3 4 4 4 5 5 9 10 10 4 4 4 5 6 7
13 12 12 11 11 10 9 7 4 4 4 4 5 10 10 10 5 5 7 7 7 10
12 13 13 13 12 11 11 9 7 5 4 4 4 11 11 10 6 9 12 12 11 11
13 13 13 13 13 12 12 10 11 12 13 13 9 13 12 9 9 12 14 15 15 14
14 13 13 15 14 12 12 14 15 15 16 16 15 13 12 11 10 12 15 15 16 15

GFSNIL_con_lsi_132.txt.gz
Lid_Strength_Index
2 2 2 2 2 2 2 1 1 2 2 2 1 1 2 2 2 2 2 2 2 2
2 2 2 2 2 1 2 2 2 2 2 2 1 1 2 2 2 2 1 1 1 2
2 3 2 2 2 2 1 2 2 2 2 2 2 2 2 2 2 2 1 1 1 1
3 3 3 3 3 3 3 3 3 2 2 2 2 2 2 2 2 2 1 1 1 1
3 2 2 3 3 4 4 4 3 3 3 2 2 2 2 2 2 2 2 2 2 2
7 6 3 3 3 3 3 3 3 3 3 3 3 3 3 2 2 1 1 1 2 2
9 8 6 3 3 3 3 3 3 3 3 3 3 3 2 2 3 2 2 2 2 2
10 9 9 8 7 3 3 3 3 3 4 4 4 4 3 4 3 3 3 3 3 2
11 10 10 9 8 8 5 4 4 4 5 5 5 9 10 6 4 4 4 4 4 4
12 12 12 11 10 10 9 7 4 4 5 5 5 10 10 10 4 4 4 5 5 6
13 13 13 13 12 12 10 9 8 4 4 5 6 10 10 11 5 5 5 6 7 8
13 13 14 14 14 13 11 10 10 11 9 7 6 13 12 10 6 7 10 11 12 10
14 13 14 14 14 13 12 12 12 14 14 15 14 13 13 11 8 11 14 15 14 14
14 14 14 14 13 13 12 13 14 15 15 15 15 15 13 12 9 12 14 15 15 15

GFSNIL_con_lsi_135.txt.gz
Lid_Strength_Index
1 2 2 2 1 2 2 1 1 2 1 0 1 1 1 2 1 0 1 1 1 1
1 2 2 1 1 1 1 1 1 1 2 1 1 1 1 1 2 1 1 1 1 1
1 1 1 1 1 1 1 1 1 1 2 2 1 2 1 1 1 2 2 2 2 1
2 1 1 1 1 1 1 1 1 1 1 2 2 2 1 1 2 2 2 2 1 1
4 2 2 2 2 2 2 2 1 2 2 2 2 2 2 2 2 2 2 2 2 2
7 7 5 2 1 1 1 2 2 2 2 2 2 1 2 2 2 2 2 2 1 1
9 9 8 6 4 2 2 1 1 2 2 2 2 2 2 2 2 1 1 1 1 1
11 10 10 8 7 5 2 2 2 2 2 2 2 2 2 1 1 1 1 1 2 1
12 11 11 10 9 9 7 3 3 3 3 3 4 10 9 5 2 2 2 2 3 2
13 13 12 11 11 10 9 7 6 4 4 4 3 10 10 9 2 1 1 3 4 4
14 14 13 13 12 12 10 10 9 9 8 4 9 11 11 11 2 2 3 4 4 4
14 13 13 14 14 13 12 11 12 12 13 12 11 14 13 11 5 5 6 8 10 9
14 14 14 13 13 12 12 12 13 14 14 15 14 14 14 12 6 8 12 13 14 14
15 14 14 14 12 12 12 12 13 14 14 15 16 15 14 13 9 11 13 14 14 14

GFSNIL_con_lsi_138.txt.gz
Lid_Strength_Index
1 1 1 1 1 1 1 1 1 1 0 0 0 0 0 0 0 0 1 1 1 1
1 1 1 1 1 1 1 1 1 1 1 0 0 0 0 1 1 0 1 1 0 1
1 1 1 1 1 1 1 1 1 1 1 1 1 1 1 1 0 1 1 1 1 1
1 1 1 1 1 1 1 1 1 1 1 1 1 1 1 1 1 1 1 1 1 1
7 5 3 1 1 1 1 1 1 1 1 2 2 1 2 2 1 1 2 1 1 2
9 8 8 7 4 1 2 2 2 2 2 3 2 2 2 1 1 1 1 1 2 1
11 9 5 5 6 5 1 1 1 1 1 1 1 1 2 1 1 1 1 1 1 1
10 10 7 7 6 6 5 1 1 1 1 1 1 1 2 2 2 1 1 1 1 1
12 11 11 9 8 8 7 5 2 2 1 1 2 8 9 4 2 1 1 2 1 1
13 13 12 11 11 11 9 8 7 7 3 6 10 13 10 10 2 2 2 1 1 1
14 14 13 13 13 12 11 10 11 11 9 10 13 14 13 13 2 2 2 2 2 2
13 13 14 13 13 12 12 12 13 13 13 13 14 14 14 11 4 2 3 4 7 5
12 12 13 13 13 12 12 13 13 14 15 15 15 15 14 13 8 8 9 10 13 14
13 13 13 12 12 12 12 12 13 14 14 14 16 15 15 14 10 11 12 12 13 14